Wind_Speed
27 29 28 26 23 23 24 22 19 8 10 23 22 23 26 24 22 30 25 21 24 24 25 25 25 24 25 25 24 24 26 27 29 29 30 30 29 30
29 29 28 27 23 25 28 27 26 25 8 19 23 23 25 23 23 21 19 21 24 24 24 25 24 26 25 25 26 27 28 28 30 31 33 34 32 32
32 31 30 26 25 27 26 27 28 23 12 15 19 25 25 25 23 23 20 19 20 21 22 21 24 25 26 26 27 29 29 30 31 32 33 33 31 31
33 31 30 28 29 29 31 34 32 35 26 23 26 25 25 28 25 22 19 19 17 16 18 21 22 24 26 28 30 29 28 27 27 28 30 31 31 30
36 34 32 31 31 31 33 33 34 34 32 25 17 19 15 22 22 18 19 19 16 17 17 19 25 24 24 25 27 24 26 28 28 27 26 28 30 31
39 38 37 38 39 39 36 38 36 30 28 28 19 21 23 22 24 20 16 17 16 15 16 18 19 21 24 21 20 22 22 21 20 21 25 30 30 30
38 35 36 39 42 41 36 35 33 31 25 25 18 14 17 16 21 15 15 15 14 13 16 16 15 14 15 17 20 21 21 20 21 25 30 29 29 30
35 35 35 37 43 42 42 41 42 37 31 27 24 21 18 17 20 15 13 8 9 12 15 14 13 15 19 20 20 22 25 27 30 29 28 27 28 29
35 33 35 41 40 39 38 32 29 30 27 23 17 11 11 14 13 11 10 8 10 12 9 15 17 20 20 21 21 22 25 28 28 28 28 27 29 28
38 35 37 40 34 30 26 24 19 16 12 15 18 17 10 7 8 8 6 8 9 12 11 13 15 20 19 22 24 25 27 28 28 26 25 25 27 27
29 27 28 26 23 27 28 27 21 16 13 11 15 10 12 10 10 9 6 7 9 12 12 16 16 20 20 19 26 26 20 21 21 26 23 24 25 22
14 12 13 15 19 24 24 27 25 18 15 10 8 7 5 6 8 10 5 8 9 8 7 11 14 13 16 20 15 14 22 23 24 23 23 24 23 15
16 18 19 23 23 22 22 20 19 16 12 12 9 3 3 4 3 4 6 8 10 15 13 10 10 16 17 22 23 20 23 28 27 27 25 23 20 19
25 26 24 24 23 21 21 20 17 16 11 6 4 2 1 2 5 6 7 9 12 16 17 16 12 16 20 22 22 19 21 21 25 28 24 19 17 16
30 28 25 25 25 25 20 18 13 10 6 4 2 2 3 5 7 9 10 12 15 16 17 17 19 21 21 23 24 23 25 25 26 29 26 19 17 19
33 27 22 21 19 18 15 11 9 6 5 3 1 2 4 6 9 9 11 14 15 17 15 16 18 19 21 23 23 25 22 23 27 28 27 22 19 20
27 21 17 14 14 12 10 8 6 5 4 3 4 6 7 8 10 10 11 13 16 17 17 16 16 18 21 24 24 24 26 26 27 28 26 23 17 20
16 14 13 11 10 9 7 6 5 5 4 4 5 7 9 10 12 12 13 15 17 18 18 18 18 20 21 23 23 26 24 22 19 22 25 24 17 19
16 14 14 13 12 10 9 7 6 4 4 3 6 8 10 12 13 15 15 15 17 18 19 19 19 18 10 11 21 18 18 20 26 28 26 21 17 17
17 15 14 12 10 9 8 7 7 7 6 7 9 10 11 13 15 16 16 16 18 19 21 21 20 20 16 12 20 26 27 26 25 25 25 30 19 14
14 14 12 11 10 8 7 5 5 5 7 8 10 11 12 14 16 17 17 17 18 20 21 21 21 24 25 25 23 25 24 21 24 27 24 22 14 13
14 12 10 9 8 7 6 7 7 8 10 11 12 13 13 14 15 16 17 17 18 19 21 22 23 23 22 22 21 25 26 24 27 28 28 26 15 6
11 9 8 7 7 7 7 8 8 9 10 10 11 12 12 14 14 15 15 16 17 19 20 21 21 21 22 23 24 24 26 25 26 25 27 14 13 4
Wind_Direction
243 244 246 247 242 242 238 241 229 247 234 240 232 230 223 222 216 224 216 229 232 237 243 248 253 258 261 262 265 268 271 276 279 280 282 283 284 284
235 241 246 248 246 241 238 240 237 232 248 240 227 222 208 210 213 216 216 224 233 236 243 248 255 257 259 262 266 270 273 276 279 282 283 283 284 285
241 242 246 242 243 244 239 234 227 228 243 252 246 220 213 208 208 203 214 226 237 247 248 252 253 255 259 263 267 270 274 277 279 280 281 283 286 286
243 245 240 237 238 237 240 234 233 235 218 235 225 210 198 202 210 209 219 230 236 249 246 246 255 259 262 267 269 271 275 276 278 281 283 287 289 290
245 244 236 232 230 236 240 235 233 233 226 224 208 201 207 209 210 212 209 223 235 242 246 254 267 271 267 266 269 272 274 275 278 280 284 291 294 294
245 244 238 230 236 242 234 237 233 225 218 209 198 196 199 197 198 209 215 228 234 239 245 252 259 270 276 277 278 281 283 284 282 283 296 298 295 295
244 242 242 243 245 246 236 233 225 218 205 202 201 182 190 186 195 196 213 229 237 244 256 257 259 264 273 279 284 289 291 284 284 291 292 293 295 293
236 238 241 247 250 249 247 242 236 215 208 205 205 204 190 183 195 200 206 215 238 248 249 253 257 266 274 274 274 273 278 281 284 290 293 291 294 293
236 234 245 246 248 249 245 229 216 217 216 208 188 173 164 185 175 193 207 230 243 250 275 270 270 275 275 277 279 280 281 284 287 290 292 290 295 292
245 248 241 243 244 237 220 199 187 176 160 155 151 130 117 149 189 192 223 256 264 264 262 262 268 270 276 280 282 280 281 282 283 286 290 290 298 291
242 240 235 232 223 216 195 162 136 123 140 146 147 159 161 186 196 191 219 238 256 259 257 265 269 279 277 287 287 282 285 282 278 286 281 292 299 285
211 208 215 208 185 178 174 159 138 139 141 122 92 119 181 205 219 213 223 243 259 281 279 266 274 293 293 283 273 285 297 300 293 291 275 283 289 264
130 118 126 142 147 155 153 142 133 122 92 103 124 119 144 185 229 244 229 244 256 256 266 320 285 283 285 287 282 284 292 291 289 288 278 274 272 252
121 118 114 125 123 117 113 107 99 104 108 119 133 154 221 253 258 258 262 266 264 268 276 282 274 275 282 283 285 291 287 288 291 288 278 271 257 243
121 115 108 108 109 104 103 102 104 105 122 116 139 219 265 275 280 285 284 284 282 280 278 273 267 271 269 272 280 287 295 291 287 283 280 267 240 219
113 107 104 102 97 101 105 92 90 92 92 67 345 300 295 292 291 293 294 296 293 290 285 279 274 273 274 274 277 283 285 283 291 289 288 274 244 232
114 106 101 100 101 101 98 100 93 77 60 39 351 331 313 304 300 301 297 299 294 293 294 292 286 281 277 279 281 279 281 280 280 281 278 268 249 232
101 101 98 98 103 104 100 99 92 65 56 5 332 318 312 313 312 307 300 293 293 296 296 296 297 294 290 283 271 270 275 292 302 315 303 259 246 242
79 76 76 76 76 76 72 62 53 54 1 343 334 323 319 314 312 305 301 298 296 297 299 301 303 298 290 284 293 295 321 313 311 306 297 281 234 240
81 82 80 78 76 72 63 48 31 14 9 354 331 319 313 310 308 305 306 307 306 306 305 299 290 285 309 313 308 302 294 288 282 282 289 298 241 229
79 77 77 76 70 61 60 43 13 350 335 325 324 320 325 318 311 309 307 307 307 296 296 300 305 311 307 299 287 285 289 289 288 285 286 293 269 181
68 72 66 62 51 35 11 357 342 336 330 329 324 320 318 314 312 308 307 308 305 304 301 303 305 304 300 294 294 297 299 302 300 294 285 274 268 189
55 50 44 37 24 14 359 348 340 334 330 328 324 320 319 315 310 304 306 307 306 306 304 303 303 304 302 301 299 295 295 298 300 312 301 247 209 156
Height
815 820 820 820 819 821 822 823 822 824 818 818 821 819 821 823 824 824 827 828 830 832 833 835 836 837 838 838 838 838 838 837 837 837 836 834 834 833
808 810 811 811 811 812 813 815 815 815 813 810 810 811 812 814 816 820 824 823 822 824 826 828 830 831 831 831 832 831 830 830 830 829 828 827 826 824
799 800 801 802 803 805 806 805 805 806 803 804 805 805 805 810 812 811 816 818 819 819 820 821 822 823 824 825 825 824 824 822 821 820 819 818 817 815
788 790 790 793 795 795 797 794 796 796 793 797 796 799 798 801 804 804 809 813 813 813 814 816 817 818 818 818 818 816 815 814 813 812 811 810 808 807
778 780 781 783 785 785 785 786 785 784 784 786 789 792 794 795 798 800 802 805 807 807 808 810 811 811 810 810 810 809 808 807 806 806 804 803 801 799
768 770 771 771 772 771 771 772 773 774 774 777 779 781 785 787 788 793 796 800 803 804 804 805 805 804 804 804 803 802 801 800 799 798 797 795 793 792
758 760 762 762 762 760 761 761 763 763 763 769 772 774 777 779 783 785 789 793 796 799 800 800 799 799 798 799 797 796 794 793 792 792 791 789 786 784
748 749 752 753 751 752 751 750 750 751 754 759 763 764 765 772 775 780 786 787 791 794 794 795 795 794 795 793 792 791 790 788 787 786 784 782 780 777
736 737 737 739 740 739 742 745 744 749 751 755 757 763 767 769 774 778 783 787 787 790 790 792 792 789 788 787 786 784 783 782 780 779 777 776 773 770
729 729 729 728 729 732 735 739 743 747 751 752 753 756 769 772 778 781 785 786 785 787 787 786 786 783 783 781 780 778 777 775 774 772 771 769 766 764
719 720 720 721 722 725 729 734 743 749 753 753 751 765 763 770 776 781 783 785 784 783 784 782 780 778 777 775 773 771 770 768 768 766 765 763 760 758
715 716 719 721 724 728 730 735 740 747 750 758 763 762 769 772 777 779 780 782 783 782 780 779 777 776 771 769 768 765 763 763 762 759 758 756 754 753
715 719 723 725 727 731 735 738 744 751 759 760 762 771 773 773 776 777 778 779 780 778 778 777 775 775 773 766 764 762 761 758 755 753 751 750 749 749
717 724 728 729 733 738 740 744 749 753 759 767 770 773 775 777 779 779 778 778 777 777 776 775 773 773 769 764 759 756 754 753 751 747 744 743 742 743
721 726 733 735 736 740 748 750 755 758 764 764 768 771 773 776 778 777 776 775 774 772 771 770 769 768 766 761 755 751 748 745 744 740 738 736 736 737
725 730 735 738 744 747 750 755 760 763 765 767 771 772 773 774 775 774 774 773 770 768 767 766 764 762 759 756 752 746 745 741 738 735 732 729 729 730
731 735 740 744 748 753 757 760 763 765 768 771 773 773 774 773 772 771 771 771 770 766 763 762 759 757 754 751 747 743 738 734 732 728 726 723 722 724
737 740 743 747 752 755 760 764 766 768 770 772 774 775 774 773 771 769 768 768 766 763 760 757 755 751 747 742 741 736 733 729 726 723 719 716 715 717
743 748 749 753 757 760 764 768 769 770 772 772 773 774 774 773 772 770 767 765 762 759 757 754 751 749 743 736 733 733 729 727 725 721 716 707 708 710
748 752 755 759 762 765 767 769 771 772 772 773 773 774 773 772 770 767 764 762 760 757 755 753 749 745 741 737 732 730 729 724 723 716 712 708 704 706
755 758 759 761 765 767 768 770 772 772 773 772 772 773 771 770 769 767 764 761 760 757 752 749 746 744 740 736 729 723 720 719 717 712 708 704 697 700
761 765 767 766 768 770 771 772 772 771 771 770 771 772 770 768 765 766 763 760 758 756 753 749 746 743 738 733 725 720 714 711 709 704 701 700 696 694
766 767 769 770 770 770 771 773 772 772 772 771 770 770 769 767 766 764 761 759 757 755 751 747 744 741 737 729 723 717 712 706 702 696 691 690 694 694